TimeEDT,TemperatureF,Dew PointF,Humidity,Sea Level PressureIn,VisibilityMPH,Wind Direction,Wind SpeedMPH,Gust SpeedMPH,PrecipitationIn,Events,Conditions,WindDirDegrees,DateUTC
12:15 AM,43.7,41.7,93,30.05,10.0,Calm,Calm,-,N/A,,Clear,0,2013-05-13 04:15:00
12:35 AM,41.9,39.7,92,30.05,10.0,Calm,Calm,-,N/A,,Clear,0,2013-05-13 04:35:00
12:55 AM,42.1,40.1,93,30.05,10.0,Calm,Calm,-,N/A,,Clear,0,2013-05-13 04:55:00
1:15 AM,41.9,38.5,88,30.06,10.0,Calm,Calm,-,N/A,,Clear,0,2013-05-13 05:15:00
1:35 AM,41.0,38.5,91,30.05,10.0,Calm,Calm,-,N/A,,Clear,0,2013-05-13 05:35:00
1:55 AM,41.0,39.2,93,30.05,10.0,Calm,Calm,-,N/A,,Clear,0,2013-05-13 05:55:00
2:15 AM,40.3,37.8,91,30.05,10.0,Calm,Calm,-,N/A,,Clear,0,2013-05-13 06:15:00
2:35 AM,39.9,38.3,94,30.05,10.0,Calm,Calm,-,N/A,,Clear,0,2013-05-13 06:35:00
2:55 AM,39.9,38.3,94,30.05,10.0,Calm,Calm,-,N/A,,Clear,0,2013-05-13 06:55:00
3:15 AM,38.7,37.2,95,30.06,10.0,Calm,Calm,-,N/A,,Clear,0,2013-05-13 07:15:00
3:35 AM,38.3,37.4,97,30.06,10.0,Calm,Calm,-,N/A,,Clear,0,2013-05-13 07:35:00
3:55 AM,37.6,36.5,96,30.07,10.0,Calm,Calm,-,N/A,,Clear,0,2013-05-13 07:55:00
4:15 AM,37.8,36.9,97,30.07,10.0,Calm,Calm,-,N/A,,Clear,0,2013-05-13 08:15:00
4:35 AM,36.9,35.8,96,30.07,10.0,Calm,Calm,-,N/A,,Clear,0,2013-05-13 08:35:00
4:55 AM,37.4,36.5,97,30.07,10.0,Calm,Calm,-,N/A,,Clear,0,2013-05-13 08:55:00
5:15 AM,36.5,35.6,97,30.08,10.0,Calm,Calm,-,N/A,,Clear,0,2013-05-13 09:15:00
5:35 AM,36.7,35.6,96,30.08,10.0,Calm,Calm,-,N/A,,Clear,0,2013-05-13 09:35:00
5:55 AM,36.0,34.9,96,30.09,10.0,Calm,Calm,-,N/A,,Clear,0,2013-05-13 09:55:00
6:15 AM,36.1,35.2,97,30.10,10.0,Calm,Calm,-,N/A,,Clear,0,2013-05-13 10:15:00
6:35 AM,37.6,36.7,97,30.10,10.0,Calm,Calm,-,N/A,,Clear,0,2013-05-13 10:35:00
6:55 AM,39.6,39.0,98,30.11,10.0,Calm,Calm,-,N/A,,Clear,0,2013-05-13 10:55:00
7:15 AM,42.4,41.5,97,30.11,10.0,Calm,Calm,-,N/A,,Clear,0,2013-05-13 11:15:00
7:35 AM,46.8,45.0,93,30.12,10.0,Calm,Calm,-,N/A,,Clear,0,2013-05-13 11:35:00
7:55 AM,50.4,38.1,63,30.13,10.0,NW,3.5,-,N/A,,Clear,310,2013-05-13 11:55:00
8:15 AM,52.0,38.3,60,30.13,10.0,Calm,Calm,-,N/A,,Clear,0,2013-05-13 12:15:00
8:35 AM,53.1,36.1,53,30.14,10.0,Calm,Calm,-,N/A,,Clear,0,2013-05-13 12:35:00
8:55 AM,54.1,34.0,47,30.14,10.0,WNW,3.5,-,N/A,,Clear,300,2013-05-13 12:55:00
9:15 AM,54.7,33.3,44,30.14,10.0,WNW,3.5,-,N/A,,Clear,290,2013-05-13 13:15:00
9:35 AM,56.3,33.1,41,30.14,10.0,West,3.5,-,N/A,,Clear,280,2013-05-13 13:35:00
9:55 AM,56.7,32.0,39,30.13,10.0,Calm,Calm,-,N/A,,Clear,0,2013-05-13 13:55:00
10:15 AM,57.6,32.4,39,30.13,10.0,Calm,Calm,-,N/A,,Clear,0,2013-05-13 14:15:00
10:35 AM,58.5,33.3,39,30.13,10.0,SW,6.9,-,N/A,,Clear,230,2013-05-13 14:35:00
10:55 AM,59.5,31.6,35,30.13,10.0,WSW,5.8,-,N/A,,Scattered Clouds,240,2013-05-13 14:55:00
11:15 AM,59.5,29.8,32,30.12,10.0,West,8.1,-,N/A,,Scattered Clouds,270,2013-05-13 15:15:00
11:35 AM,59.7,29.3,32,30.12,10.0,WNW,9.2,-,N/A,,Scattered Clouds,290,2013-05-13 15:35:00
11:55 AM,58.3,30.0,34,30.12,10.0,WSW,5.8,-,N/A,,Mostly Cloudy,240,2013-05-13 15:55:00
12:15 PM,59.4,28.6,31,30.12,10.0,West,9.2,19.6,N/A,,Mostly Cloudy,280,2013-05-13 16:15:00
12:35 PM,60.4,31.1,33,30.11,10.0,WSW,5.8,9.2,N/A,,Mostly Cloudy,240,2013-05-13 16:35:00
12:55 PM,61.5,30.2,31,30.10,10.0,West,8.1,-,N/A,,Scattered Clouds,260,2013-05-13 16:55:00
1:15 PM,59.7,29.5,32,30.10,10.0,NW,5.8,-,N/A,,Mostly Cloudy,310,2013-05-13 17:15:00
1:35 PM,61.7,31.3,32,30.09,10.0,WSW,12.7,19.6,N/A,,Mostly Cloudy,250,2013-05-13 17:35:00
1:55 PM,62.8,32.2,32,30.09,10.0,West,5.8,-,N/A,,Mostly Cloudy,280,2013-05-13 17:55:00
2:15 PM,60.1,30.2,32,30.08,10.0,NW,10.4,16.1,N/A,,Mostly Cloudy,310,2013-05-13 18:15:00
2:35 PM,61.3,30.4,31,30.08,10.0,West,9.2,17.3,N/A,,Scattered Clouds,270,2013-05-13 18:35:00
2:55 PM,58.3,29.5,33,30.08,10.0,West,8.1,-,N/A,,Mostly Cloudy,280,2013-05-13 18:55:00
3:15 PM,59.2,30.0,33,30.07,10.0,West,8.1,-,N/A,,Mostly Cloudy,270,2013-05-13 19:15:00
3:35 PM,59.5,28.6,31,30.07,10.0,NW,9.2,-,N/A,,Overcast,310,2013-05-13 19:35:00
4:35 PM,61.5,30.0,30,30.05,10.0,NW,8.1,-,N/A,,Overcast,310,2013-05-13 20:35:00
4:55 PM,61.3,28.0,28,30.04,10.0,West,10.4,16.1,N/A,,Mostly Cloudy,260,2013-05-13 20:55:00
5:15 PM,60.6,27.0,28,30.04,10.0,West,11.5,18.4,N/A,,Scattered Clouds,270,2013-05-13 21:15:00
5:35 PM,60.4,26.2,27,30.04,10.0,West,10.4,16.1,N/A,,Scattered Clouds,270,2013-05-13 21:35:00
5:55 PM,60.6,26.6,27,30.04,10.0,NW,8.1,16.1,N/A,,Scattered Clouds,310,2013-05-13 21:55:00
6:15 PM,59.4,28.0,30,30.04,10.0,WNW,6.9,-,N/A,,Scattered Clouds,300,2013-05-13 22:15:00
6:35 PM,59.2,28.6,31,30.05,10.0,West,4.6,-,N/A,,Scattered Clouds,280,2013-05-13 22:35:00
6:55 PM,58.1,27.7,31,30.05,10.0,Calm,Calm,-,N/A,,Clear,0,2013-05-13 22:55:00
7:55 PM,54.5,27.5,35,30.08,10.0,WNW,4.6,-,N/A,,Mostly Cloudy,290,2013-05-13 23:55:00
8:15 PM,53.8,27.1,36,30.08,10.0,Calm,Calm,-,N/A,,Scattered Clouds,0,2013-05-14 00:15:00
8:35 PM,50.5,31.3,48,30.09,10.0,Calm,Calm,-,N/A,,Scattered Clouds,0,2013-05-14 00:35:00
8:55 PM,45.9,34.3,64,30.11,10.0,Calm,Calm,-,N/A,,Clear,0,2013-05-14 00:55:00
9:15 PM,45.1,34.9,67,30.11,10.0,Calm,Calm,-,N/A,,Clear,0,2013-05-14 01:15:00
9:35 PM,43.7,35.2,72,30.13,10.0,Calm,Calm,-,N/A,,Clear,0,2013-05-14 01:35:00
9:55 PM,43.3,33.8,69,30.14,10.0,Calm,Calm,-,N/A,,Clear,0,2013-05-14 01:55:00
10:15 PM,43.0,33.4,69,30.15,10.0,West,3.5,-,N/A,,Clear,270,2013-05-14 02:15:00
10:35 PM,43.7,33.4,67,30.15,10.0,Calm,Calm,-,N/A,,Clear,0,2013-05-14 02:35:00
10:55 PM,45.5,32.0,59,30.15,10.0,Calm,Calm,-,N/A,,Clear,0,2013-05-14 02:55:00
11:15 PM,43.2,33.1,68,30.16,10.0,Calm,Calm,-,N/A,,Clear,0,2013-05-14 03:15:00
11:35 PM,43.7,32.2,64,30.16,10.0,Calm,Calm,-,N/A,,Clear,0,2013-05-14 03:35:00
11:55 PM,41.9,33.4,72,30.17,10.0,Calm,Calm,-,N/A,,Clear,0,2013-05-14 03:55:00